Погода в Серафимовиче

Погода в Серафимовиче : погода сейчас, прогноз погоды и архив. Всё, что Вы хотите узнать о погоде в Серафимовиче!

Поиск расширенной информации на нашем сайте:

Другие новости

Новости СМИ2

Главная страница сайта

Новости сайта

03.07.2017

Напоминаем, что на нашем специализированном сайте Метеоцентр.Азия вы можете получить высокодетализированные автоматические прогнозы погоды по пунктам России, СНГ и мира в авиационном формате (включающие направление и скорость ветра, видимость, явления погоды, количество и форму облачности, нижнюю и верхнюю границу облачности).

Рекомендуем: Работаем с овощами и салатами. Для ускорения работы используйте яйцерезку, это удобно.

Погода в Серафимовиче - сегодня

Время (UTC), дата Ветер
(°,м/с) 
Видим.   Явления Облачность Т
(°С)
Тd
(°С)
f(%) Тe
(°С)
Pmin
(гПа)
dP
(гПа)
Po
(мм)
O2
(г/м3)
Тmin Tmax R s Состояние
почвы
12 17.10.17 260 (З) 20000 м    9/0 средняя, верхняя 
[Ac trans|Ci sp]
+11.4 +1.7 51 +12  1013.3  -0.7  749  289           
15 17.10.17 260 (З) 20000 м    10/4 600 м средняя 
[Sc|Ac und]
+10.9 +3.9 62 +11  1014  0.6  749  290    +11.7       
18 17.10.17 310 (СЗ) 20000 м    10/0 средняя 
[Ac und]
+10.4 +7.2 81 +10  1015.1  750  290           
21 17.10.17 320 (СЗ) 20000 м    10/0 средняя 
[Ac und]
+10.1 +7.4 83 +10  1016.9  1.8  751  291           
03 18.10.17 240 (ЮЗ) 20000 м    10/0 средняя 
[Ac und]
+6 +5.1 94 +6  1020.3  1.2  754  296  +6         
06 18.10.17 240 (ЮЗ) 0200 м  туман  ?/?  
+5.8 +5 95 +6  1021.1  0.8  754  297  +5.1         
09 18.10.17 230 (ЮЗ) 20000 м  {туман}  ясно 
+13.2 +6.3 63 +13  1020.1  -0.5  754  289           
12 18.10.17 220 (ЮЗ) 20000 м  {туман}  ясно 
+15.3 +6.3 55 +16  1017.9  -2.1  752  286           
15 18.10.17 230 (ЮЗ) 3{10}  20000 м    ясно 
+12.5 +8.4 76 +12  1017.5  -0.6  752  288    +15.3       
18 18.10.17 230 (ЮЗ) 4{11}  20000 м    ясно 
+12 +8.5 79 +11  1016.6  -0.8  751  288           
21 18.10.17 230 (ЮЗ) 5{10}  20000 м    ясно 
+12 +8.3 78 +11  1016.1  -0.5  751  288           
00 19.10.17 240 (ЮЗ) 20000 м    ясно 
+11.4 +8.4 82 +11  1015.6  -0.5  750  289           
03 19.10.17 240 (ЮЗ) 10 км    ясно 
+10.7 +8.2 85 +10  1015.3  -0.3  750  289  +10.4         
06 19.10.17 240 (ЮЗ) 10 км    9/0 верхняя 
[Ci]
+13 +8.8 76 +13  1015.4  -0.3  750  287           
09 19.10.17 230 (ЮЗ) 20000 м    9/0 верхняя 
[Ci]
+16.5 +10.1 66 +18  1015.2  0.1  750  283           
12 19.10.17 270 (З) 20000 м    9/0 верхняя 
[Ci]
+18.8 +10.9 60 +22  1014.5  -0.5  750  281           
15 19.10.17 340 (С) 20000 м    8/0 средняя, верхняя 
[Ac trans|Ci fib]
+14.1 +10.6 79 +16  1015.7  751  286    +18.8       
18 19.10.17 310 (СЗ) 10 км    10/3 600 м кучево-дожд., средняя 
[Cb calv|Ac und]
+12.7 +10.2 85 +15  1016.2  0.4  751  287           
21 19.10.17 270 (З) 10 км    10/4 600 м кучево-дожд., средняя 
[Cb calv|Ac und]
+12 +9.9 87 +14  1016.5  0.2  751  288           
00 20.10.17 320 (СЗ) 4000 м  дымка  10/10 300 м 
[Sc]
+10.2 +9.1 93 +10  1016.9  0.3  751  290           
03 20.10.17 360 (С) 4000 м  дымка  9/5 300 м верхняя 
[Sc|Ci sp]
+8 +7 93 +9  1017.5  0.5  752  293  +8         
06 20.10.17 030 (СВ) 20000 м  дымка  8/8 300 м 
[Sc]
+8.2 +5.5 83 +8  1018.7  1.1  753  294  +7.3         
09 20.10.17 020 (С) 20000 м    4/0 средняя 
[Ac lent]
+13.6 +2.4 47 +14  1018.7  0.2  753  289           
12 20.10.17 020 (С) 20000 м    8/0 средняя 
[Ac trans]
+12.7 +1.1 45 +13  1018.7  753  290           
15 20.10.17 040 (СВ) 20000 м    10/0 средняя 
[Ac und]
+9.8 +0.9 54 +10  1019.4  0.5  753  293    +14.7       
Время (UTC), дата Ветер
(°,м/с) 
Видим.   Явления Облачность Т
(°С)
Тd
(°С)
f(%) Тe
(°С)
Pmin
(гПа)
dP
(гПа)
Po
(мм)
O2
(г/м3)
Тmin Tmax R s Состояние
почвы

Для получения пояснительной информации подведите курсор к названию столбца.

ПОГОДА в Серафимовиче - архив

Всё, что Вы хотите узнать о погоде в Серафимовиче - удобно и подробно!

Выберите нужную дату (начиная с 1 января 2015* года) и нажмите кнопку "Найти".
Будут отображены архивные сводки погоды по пункту Серафимович, начиная с указанной даты.


Отображать данные в формате CSV (для использования в таблицах Excel)


Внимание! Наш архив погоды предназначен исключительно для личного некоммерческого использования в познавательных целях. Если Вам необходимы официальные справки о состоянии погоды (для производственных, юридических, коммерческих и т.п. целей), обращайтесь в органы Росгидромета.

*Примечание: данная дата относится к архиву по метеостанциям СССР (Россия, СНГ, Балтия).
Архив по метеостанциям Зарубежной Европы и Азии (кроме Китая) хранится 10 дней, по другим регионам земного шара (Китай, Африка, Америка, Австралия, Океания) - 1 день.

Серафимович - район местоположения метеостанции


Название, широта, долгота, высота метеостанции:
Серафимович 49.6°ш. 42.8°д. 200 м над ур. моря [Российская Федерация]

Дополнительная информация

В oтличие oт бoльшинства пoгoдных сайтoв мы публикуем пoдрoбную метеoинфoрмацию в детальнoм прoфессиoнальнoм фoрмате.

Характеристики температуры и влажнoсти вoздуха измеряются на высoте 2 м в тени вдали oт зданий и деревьев.
Скoрoсть ветра измеряется на высoте 10 м (на урoвне рoста челoвека скoрoсть ветра ниже в 1.5-2 раза). Если метеoстанция нахoдится в гoрoде или в лесу, тo скoрoсть ветра занижена на 2-4 м/с пo сравнению с oткрытым местoм. Скoрoсть ветра над акватoриями крупных рек и oзёр, а также на вершинах хoлмoв на 2-5 м/с выше, чем в oбычных услoвиях.
Атмoсфернoе давление в разных тoчках местнoсти мoжет значительнo oтличаться oт давления на метеoстанции, в зависимoсти oт услoвий рельефа (при пoдъёме на 10 м давление пoнижается примернo на 1 мм рт.ст.).